TimeCDT,TemperatureF,Dew PointF,Humidity,Sea Level PressureIn,VisibilityMPH,Wind Direction,Wind SpeedMPH,Gust SpeedMPH,PrecipitationIn,Events,Conditions,WindDirDegrees,DateUTC
12:53 AM,26.6,21.2,80,30.04,10.0,NNW,6.9,-,N/A,,Clear,340,2012-10-31 05:53:00
1:53 AM,26.1,21.0,81,30.07,10.0,North,9.2,-,N/A,,Clear,350,2012-10-31 06:53:00
2:53 AM,24.1,19.0,81,30.06,10.0,North,8.1,-,N/A,,Clear,350,2012-10-31 07:53:00
3:53 AM,23.0,18.0,81,30.06,10.0,NNW,5.8,-,N/A,,Clear,330,2012-10-31 08:53:00
4:53 AM,23.0,18.0,81,30.06,10.0,NNW,6.9,-,N/A,,Clear,330,2012-10-31 09:53:00
5:53 AM,24.1,17.1,75,30.06,10.0,NW,8.1,-,N/A,,Clear,320,2012-10-31 10:53:00
6:53 AM,21.0,16.0,81,30.07,10.0,WNW,9.2,-,N/A,,Clear,300,2012-10-31 11:53:00
7:53 AM,21.0,16.0,81,30.06,10.0,WNW,8.1,-,N/A,,Clear,300,2012-10-31 12:53:00
8:53 AM,28.9,21.0,72,30.07,10.0,NW,8.1,-,N/A,,Clear,310,2012-10-31 13:53:00
9:53 AM,35.1,21.9,59,30.07,10.0,NNW,9.2,-,N/A,,Clear,340,2012-10-31 14:53:00
10:53 AM,39.9,21.0,47,30.06,10.0,NNW,15.0,-,N/A,,Clear,340,2012-10-31 15:53:00
11:53 AM,44.1,19.9,38,30.06,10.0,NW,11.5,-,N/A,,Clear,320,2012-10-31 16:53:00
12:53 PM,46.9,19.0,33,30.04,10.0,NNW,11.5,-,N/A,,Clear,330,2012-10-31 17:53:00
1:53 PM,50.0,16.0,26,30.02,10.0,NNW,15.0,23.0,N/A,,Clear,330,2012-10-31 18:53:00
2:53 PM,51.1,15.1,24,30.00,10.0,NNW,12.7,-,N/A,,Clear,340,2012-10-31 19:53:00
3:53 PM,51.1,16.0,25,29.99,10.0,NNW,15.0,-,N/A,,Clear,330,2012-10-31 20:53:00
4:53 PM,50.0,19.9,31,29.99,10.0,NNW,11.5,-,N/A,,Clear,330,2012-10-31 21:53:00
5:53 PM,45.0,23.0,42,30.00,10.0,NNW,6.9,-,N/A,,Clear,330,2012-10-31 22:53:00
6:53 PM,39.2,23.0,52,29.98,10.0,WNW,5.8,-,N/A,,Clear,300,2012-10-31 23:53:00
7:53 PM,36.0,23.0,59,30.01,10.0,West,3.5,-,N/A,,Clear,280,2012-11-01 00:53:00
8:53 PM,35.1,24.1,64,29.99,10.0,Calm,Calm,-,N/A,,Clear,0,2012-11-01 01:53:00
9:53 PM,34.0,24.1,67,30.00,10.0,West,3.5,-,N/A,,Clear,270,2012-11-01 02:53:00
10:53 PM,33.1,24.1,70,29.99,10.0,Calm,Calm,-,N/A,,Scattered Clouds,0,2012-11-01 03:53:00
11:53 PM,37.0,26.1,65,29.98,10.0,Calm,Calm,-,N/A,,Overcast,0,2012-11-01 04:53:00